Terminal Aerodrome Forecast
Issued by NWS Cleveland, OH

Home | Current Version | Previous Version | Graphics & Text | Print | Product List | Glossary On
Versions: 1 2 3 4 5 6 7 8 9 10 11 12 13 14 15 16 17 18 19 20 21 22 23 24 25 26
000
FTUS41 KCLE 200300 AAA
TAFCLE
TAF AMD
KCLE 200346Z 2004/2106 VRB03KT 5SM BR OVC050
     FM200500 VRB03KT 5SM BR SCT050
     FM200700 VRB03KT 4SM BR FEW050
     FM200800 00000KT 1SM BR SCT004 BKN012
     FM201400 00000KT P6SM BKN025
     FM202000 36006KT P6SM SCT050=

USA.gov is the U.S. government's official web portal to all federal, state and local government web resources and services.